Regional Weather Roundup
Issued by NWS Goodland, KS

Home | Current Version | Previous Version | Graphics & Text | Print | Product List | Glossary On
Versions: 1 2 3 4 5 6 7 8 9 10 11 12 13 14 15 16 17 18 19 20 21 22 23 24 25 26 27 28 29 30 31 32 33 34 35 36 37 38 39 40 41 42 43 44 45 46 47 48 49 50
000
ASUS43 KGLD 240759
RWRGLD

GOODLAND FORECAST AREA HOURLY WEATHER ROUNDUP
NATIONAL WEATHER SERVICE GOODLAND KS
100 AM MST FRI NOV 24 2017

...OFFICIAL OBSERVATIONS...

CITY           SKY/WX    TMP DP  RH WIND       PRES   REMARKS
GOODLAND KS    CLEAR     47  35  63 W12       29.81F
HILL CITY KS   CLEAR     49  39  68 W7        29.76F
IMPERIAL NEB   CLEAR     46  31  55 W12       29.76F
MCCOOK NEB     CLEAR     47  37  68 W9        29.75F
AKRON CO       CLOUDY    49  27  42 SW10      29.84F
BURLINGTON CO  CLOUDY    41  33  73 W10       29.84F
LIMON CO       CLOUDY    34  27  75 N5        29.91F
$$

...UNOFFICIAL OBSERVATIONS...

CITY           SKY/WX    TMP DP  RH WIND       PRES   REMARKS
LENORA KS        N/A     51  32  48 SW8         N/A
NORTON KS      CLEAR     48  34  57 SW8       29.74
SHARON SPRINGS   N/A     43  34  71 SW10        N/A
KIT CARSON CO    N/A     40  32  74 CALM        N/A
YUMA CO        FAIR      41  30  65 W9        29.82F
$$




USA.gov is the U.S. government's official web portal to all federal, state and local government web resources and services.